GW0206 Weather Reports


time (UTC)temp
C
wind
direction
speed
KPH
gust
KPH
rain 1hr
cm
rain 24hr
cm
rain mn
cm
humidity
%
barometer
mb
20260507195502 13 112 4.8 22.5 0.00 0.00 0.00 52 1011.5
20260507195003 14 144 4.8 22.5 0.00 0.00 0.00 52 1011.6
20260507194504 15 146 8.0 24.1 0.00 0.00 0.00 48 1011.7
20260507194002 15 73 11.3 24.1 0.00 0.00 0.00 51 1011.8
20260507193502 14 63 8.0 27.4 0.00 0.00 0.00 48 1011.8
20260507193004 14 118 8.0 27.4 0.00 0.00 0.00 52 1011.9
20260507192504 14 128 11.3 27.4 0.00 0.00 0.00 51 1011.9
20260507192004 14 102 6.4 27.4 0.00 0.00 0.00 52 1011.9
20260507191503 15 153 8.0 22.5 0.00 0.00 0.00 50 1012.0
20260507191004 14 118 8.0 25.7 0.00 0.00 0.00 52 1012.0
20260507190503 14 105 11.3 25.7 0.00 0.00 0.00 50 1011.9
20260507190016 13 125 12.9 24.1 0.00 0.00 0.00 52 1012.0
20260507185502 13 111 12.9 24.1 0.00 0.00 0.00 50 1012.0
20260507185008 14 90 11.3 35.4 0.00 0.00 0.00 48 1011.9
20260507184514 14 123 11.3 35.4 0.00 0.00 0.00 49 1012.0
20260507184003 14 90 12.9 29.0 0.00 0.00 0.00 48 1011.9
20260507183502 14 161 3.2 20.9 0.00 0.00 0.00 58 1011.9
20260507183004 15 145 8.0 24.1 0.00 0.00 0.00 51 1012.0
20260507182504 15 74 16.1 24.1 0.00 0.00 0.00 48 1012.0
20260507182004 14 90 12.9 20.9 0.00 0.00 0.00 53 1012.0
20260507181510 13 123 3.2 22.5 0.00 0.00 0.00 54 1012.0
20260507181006 13 129 4.8 25.7 0.00 0.00 0.00 52 1012.0
20260507180509 14 82 11.3 29.0 0.00 0.00 0.00 50 1012.0
20260507180008 13 101 8.0 29.0 0.00 0.00 0.00 55 1012.0
20260507175503 13 132 6.4 24.1 0.00 0.00 0.00 52 1012.1
20260507175007 13 76 16.1 24.1 0.00 0.00 0.00 49 1012.0
20260507174503 14 107 9.7 24.1 0.00 0.00 0.00 49 1012.0
20260507174003 14 138 9.7 25.7 0.00 0.00 0.00 52 1012.1
20260507173507 14 117 9.7 25.7 0.00 0.00 0.00 57 1012.2
20260507173031 14 109 9.7 20.9 0.00 0.00 0.00 53 1012.1
20260507172503 14 139 8.0 22.5 0.00 0.00 0.00 55 1012.1
20260507172004 14 132 14.5 24.1 0.00 0.00 0.00 50 1012.2
20260507171503 14 52 14.5 24.1 0.00 0.00 0.00 48 1012.2
20260507171002 14 148 4.8 29.0 0.00 0.00 0.00 54 1012.3
20260507170504 14 83 17.7 29.0 0.00 0.00 0.00 49 1012.2
20260507170015 14 38 12.9 20.9 0.00 0.00 0.00 51 1012.3
20260507165505 14 94 8.0 27.4 0.00 0.00 0.00 52 1012.3
20260507165003 14 157 3.2 27.4 0.00 0.00 0.00 58 1012.4
20260507164512 13 107 9.7 30.6 0.00 0.00 0.00 51 1012.4
20260507164007 13 71 17.7 30.6 0.00 0.00 0.00 48 1012.3
20260507163506 13 128 8.0 29.0 0.00 0.00 0.00 53 1012.4
20260507163009 13 90 6.4 25.7 0.00 0.00 0.00 52 1012.3
20260507162503 13 132 14.5 25.7 0.00 0.00 0.00 48 1012.4
20260507162009 13 105 14.5 25.7 0.00 0.00 0.00 54 1012.4
20260507161523 13 112 14.5 30.6 0.00 0.00 0.00 46 1012.4
20260507161000 13 84 12.9 30.6 0.00 0.00 0.00 49 1012.3
20260507160502 13 114 8.0 22.5 0.00 0.00 0.00 59 1012.3
20260507160008 13 22 6.4 22.5 0.00 0.00 0.00 54 1012.3
20260507155506 13 139 8.0 22.5 0.00 0.00 0.00 54 1012.4
20260507155003 12 107 6.4 32.2 0.00 0.00 0.00 51 1012.3
20260507154527 12 69 14.5 32.2 0.00 0.00 0.00 52 1012.4
20260507154009 12 58 8.0 20.9 0.00 0.00 0.00 54 1012.4
20260507153504 12 61 8.0 22.5 0.00 0.00 0.00 52 1012.4
20260507153030 12 123 11.3 24.1 0.00 0.00 0.00 51 1012.4
20260507152507 12 107 4.8 24.1 0.00 0.00 0.00 58 1012.5
20260507152009 12 63 11.3 22.5 0.00 0.00 0.00 53 1012.4
20260507151512 12 148 4.8 19.3 0.00 0.00 0.00 54 1012.4
20260507151006 12 96 9.7 19.3 0.00 0.00 0.00 54 1012.4
20260507150510 12 105 11.3 24.1 0.00 0.00 0.00 59 1012.6
20260507150008 12 71 12.9 24.1 0.00 0.00 0.00 53 1012.6
20260507145508 12 141 11.3 27.4 0.00 0.00 0.00 56 1012.5
20260507145007 12 97 11.3 27.4 0.00 0.00 0.00 56 1012.7
20260507144510 12 113 12.9 24.1 0.00 0.00 0.00 56 1012.8
20260507144003 12 98 11.3 24.1 0.00 0.00 0.00 58 1012.7
20260507143505 12 86 8.0 20.9 0.00 0.00 0.00 60 1012.7
20260507143022 12 133 4.8 20.9 0.00 0.00 0.00 66 1012.7
20260507142507 11 96 11.3 27.4 0.00 0.00 0.00 61 1012.7
20260507142006 11 71 12.9 27.4 0.00 0.00 0.00 61 1012.7
20260507141521 11 76 12.9 27.4 0.00 0.00 0.00 62 1012.8
20260507141008 11 50 9.7 19.3 0.00 0.00 0.00 65 1012.9
20260507140504 11 118 11.3 19.3 0.00 0.00 0.00 62 1012.9
20260507140016 11 40 4.8 19.3 0.00 0.00 0.00 67 1013.0
20260507135509 11 89 8.0 19.3 0.00 0.00 0.00 68 1013.1
20260507135011 11 113 4.8 14.5 0.00 0.00 0.00 68 1013.2
20260507134515 10 110 6.4 14.5 0.00 0.00 0.00 67 1013.2
20260507134006 10 117 8.0 14.5 0.00 0.00 0.00 68 1013.2
20260507133510 10 127 3.2 16.1 0.00 0.00 0.00 72 1013.3
20260507133012 10 63 9.7 16.1 0.00 0.00 0.00 74 1013.3
20260507132503 10 138 4.8 12.9 0.00 0.00 0.00 74 1013.3
20260507132007 10 91 1.6 16.1 0.00 0.00 0.00 75 1013.3
20260507131519 9 119 9.7 16.1 0.00 0.00 0.00 73 1013.3
20260507131003 9 122 3.2 16.1 0.00 0.00 0.00 77 1013.2
20260507130505 8 127 6.4 16.1 0.00 0.00 0.00 76 1013.3
20260507130035 8 103 6.4 16.1 0.00 0.00 0.00 77 1013.2
20260507125510 8 48 9.7 16.1 0.00 0.00 0.00 79 1013.2
20260507125008 8 52 8.0 16.1 0.00 0.00 0.00 80 1013.2
20260507124501 7 64 4.8 16.1 0.00 0.00 0.00 81 1013.3
20260507124001 7 45 6.4 12.9 0.00 0.00 0.00 83 1013.3
20260507123501 7 122 6.4 14.5 0.00 0.00 0.00 83 1013.2
20260507123002 6 101 4.8 14.5 0.00 0.00 0.00 84 1013.2
20260507122502 6 100 6.4 12.9 0.00 0.00 0.00 87 1013.3
20260507122006 5 82 4.8 14.5 0.00 0.00 0.00 88 1013.2
20260507121516 5 30 8.0 14.5 0.00 0.00 0.00 89 1013.1
20260507121002 5 63 4.8 12.9 0.00 0.00 0.00 90 1013.1
20260507120504 5 57 3.2 9.7 0.00 0.00 0.00 90 1013.2
20260507120020 5 66 3.2 8.0 0.00 0.00 0.00 92 1013.2
20260507115503 4 71 3.2 8.0 0.00 0.00 0.00 93 1013.3
20260507115001 4 66 3.2 6.4 0.00 0.00 0.00 94 1013.4
20260507114503 4 13 0.0 4.8 0.00 0.00 0.00 94 1013.3
20260507114005 3 13 1.6 4.8 0.00 0.00 0.00 94 1013.2
20260507113503 3 13 0.0 3.2 0.00 0.00 0.00 94 1013.3
20260507113006 3 13 0.0 3.2 0.00 0.00 0.00 94 1013.2
20260507112502 3 13 0.0 3.2 0.00 0.00 0.00 94 1013.2
20260507112002 3 13 0.0 1.6 0.00 0.00 0.00 94 1013.1
20260507111503 3 13 0.0 3.2 0.00 0.00 0.00 94 1013.2
20260507111003 3 13 0.0 4.8 0.00 0.00 0.00 94 1013.2
20260507110506 3 13 1.6 4.8 0.00 0.00 0.00 94 1013.1
20260507110016 3 343 0.0 3.2 0.00 0.00 0.00 94 1013.0
20260507105502 3 343 0.0 4.8 0.00 0.00 0.00 94 1012.9
20260507105002 3 343 0.0 4.8 0.00 0.00 0.00 94 1012.9
20260507104518 3 343 0.0 4.8 0.00 0.00 0.00 94 1012.8
20260507104009 3 343 0.0 4.8 0.00 0.00 0.00 94 1012.8
20260507103501 3 342 0.0 4.8 0.00 0.00 0.00 94 1012.8
20260507103005 3 342 0.0 4.8 0.00 0.00 0.00 93 1012.8
20260507102503 3 342 0.0 3.2 0.00 0.00 0.00 93 1012.8
20260507102003 3 355 0.0 3.2 0.00 0.00 0.00 93 1012.7
20260507101507 3 355 0.0 4.8 0.00 0.00 0.00 93 1012.7
20260507101002 3 355 1.6 4.8 0.00 0.00 0.00 93 1012.8
20260507100505 3 355 0.0 4.8 0.00 0.00 0.00 93 1012.7
20260507100006 3 360 0.0 0.0 0.00 0.03 0.00 93 1012.7
20260507095506 3 360 0.0 0.0 0.00 0.03 0.00 93 1012.6
20260507095006 3 360 0.0 0.0 0.00 0.05 0.00 93 1012.6
20260507094516 3 360 0.0 0.0 0.00 0.05 0.00 93 1012.6
20260507094002 3 360 0.0 0.0 0.00 0.08 0.00 92 1012.6
20260507093507 3 360 0.0 0.0 0.00 0.10 0.00 92 1012.7
20260507093025 3 12 0.0 3.2 0.00 0.10 0.00 92 1012.7
20260507092503 3 12 0.0 4.8 0.00 0.13 0.00 92 1012.7
20260507092003 3 12 0.0 4.8 0.00 0.15 0.00 92 1012.7
20260507091503 3 9 0.0 4.8 0.00 0.18 0.00 92 1012.8
20260507091004 3 9 1.6 3.2 0.00 0.20 0.00 92 1012.8
20260507090503 3 9 0.0 3.2 0.00 0.23 0.00 92 1012.7
20260507090010 3 9 1.6 4.8 0.00 0.25 0.00 91 1012.8
20260507085503 3 9 0.0 4.8 0.00 0.28 0.00 91 1012.8
20260507085006 3 21 1.6 4.8 0.00 0.28 0.00 91 1012.7
20260507084510 3 22 1.6 4.8 0.00 0.30 0.00 91 1012.7
20260507084006 3 28 3.2 4.8 0.00 0.30 0.00 91 1012.7
20260507083507 3 14 1.6 4.8 0.00 0.30 0.00 91 1012.8
20260507083008 3 12 1.6 4.8 0.00 0.30 0.00 90 1012.8
20260507082504 3 14 0.0 3.2 0.00 0.30 0.00 90 1012.8
20260507082009 4 331 0.0 3.2 0.00 0.33 0.00 90 1012.8
20260507081523 4 299 0.0 3.2 0.00 0.36 0.00 90 1012.8
20260507081003 4 298 0.0 3.2 0.00 0.38 0.00 89 1012.9
20260507080507 4 298 0.0 3.2 0.00 0.41 0.00 89 1012.9
20260507080027 4 291 0.0 1.6 0.00 0.46 0.00 88 1012.9
20260507075503 4 291 0.0 1.6 0.00 0.51 0.00 88 1012.9
20260507075002 4 255 0.0 3.2 0.00 0.53 0.00 88 1012.8
20260507074511 4 243 0.0 3.2 0.00 0.61 0.00 87 1012.8
20260507074007 4 241 0.0 3.2 0.00 0.64 0.00 87 1012.9
20260507073502 4 239 0.0 1.6 0.00 0.66 0.00 87 1012.9
20260507073018 4 239 0.0 1.6 0.00 0.71 0.00 86 1013.0
20260507072507 5 239 0.0 3.2 0.00 0.74 0.00 86 1012.9
20260507072008 5 239 0.0 3.2 0.00 0.76 0.00 85 1012.9
20260507071534 5 238 0.0 3.2 0.00 0.79 0.00 85 1012.9
20260507071006 5 238 0.0 3.2 0.00 0.81 0.00 85 1012.9
20260507070509 5 235 0.0 1.6 0.00 0.84 0.00 85 1012.9
20260507070027 5 234 0.0 1.6 0.00 0.86 0.00 85 1012.9
20260507065505 5 234 0.0 3.2 0.00 0.89 0.00 85 1013.0
20260507065009 5 234 0.0 3.2 0.00 0.91 0.00 85 1013.0
20260507064527 5 234 0.0 3.2 0.00 0.94 0.00 85 1013.0
20260507064005 5 228 0.0 3.2 0.00 0.97 0.00 85 1013.1
20260507063504 5 179 0.0 3.2 0.00 0.99 0.00 85 1013.1
20260507063009 5 171 0.0 3.2 0.00 1.02 0.00 85 1013.1
20260507062511 5 171 0.0 0.0 0.00 1.04 0.00 84 1013.2
20260507062007 5 171 0.0 0.0 0.00 1.07 0.00 84 1013.3
20260507061518 5 171 0.0 3.2 0.00 1.07 0.00 84 1013.4
20260507061006 5 171 0.0 3.2 0.00 1.12 0.00 84 1013.3
20260507060508 5 171 0.0 3.2 0.00 1.17 0.00 84 1013.4
20260507060015 5 171 0.0 1.6 0.00 1.19 0.00 84 1013.5
20260507055509 5 171 0.0 0.0 0.00 1.22 0.00 84 1013.6
20260507055014 5 171 0.0 0.0 0.00 1.24 0.00 84 1013.6
20260507054513 5 171 0.0 0.0 0.00 1.27 0.00 83 1013.7
20260507054009 5 171 0.0 0.0 0.00 1.30 0.00 83 1013.6
20260507053508 6 171 0.0 1.6 0.00 1.32 0.00 83 1013.6
20260507053042 6 171 0.0 1.6 0.00 1.32 0.00 83 1013.6
20260507052509 6 171 0.0 1.6 0.00 1.32 0.00 82 1013.7
20260507052008 6 171 0.0 1.6 0.00 1.37 0.00 82 1013.7
20260507051538 6 171 0.0 3.2 0.00 1.40 0.00 81 1013.8
20260507051007 6 171 0.0 3.2 0.00 1.42 0.00 80 1013.7
20260507050507 6 171 0.0 1.6 0.00 1.45 0.00 80 1013.8
20260507050021 6 171 0.0 1.6 0.00 1.45 0.00 80 1013.7
20260507045509 6 171 0.0 0.0 0.00 1.47 0.00 80 1013.8
20260507045007 6 171 0.0 0.0 0.00 1.47 0.00 79 1013.8
20260507044527 6 171 0.0 0.0 0.00 1.47 0.00 79 1013.7
20260507044008 6 171 0.0 0.0 0.00 1.47 0.00 79 1013.7
20260507043512 6 171 0.0 0.0 0.00 1.52 0.00 78 1013.7
20260507043018 6 171 0.0 1.6 0.00 1.55 0.00 78 1013.8
20260507042509 6 171 0.0 1.6 0.00 1.57 0.00 78 1013.8
20260507042012 6 171 0.0 1.6 0.00 1.60 0.00 78 1013.9
20260507041530 6 171 0.0 1.6 0.00 1.60 0.00 79 1014.0
20260507041007 6 171 0.0 1.6 0.00 1.63 0.00 78 1014.0
20260507040512 6 171 0.0 0.0 0.00 1.65 0.00 77 1014.1
20260507040030 6 171 0.0 0.0 0.00 1.70 0.00 76 1014.1
20260507035510 6 171 0.0 0.0 0.00 1.73 1.70 76 1014.1
20260507035005 7 171 0.0 0.0 0.00 1.73 1.70 75 1014.2
20260507034532 7 171 0.0 0.0 0.00 1.75 1.70 75 1014.2
20260507034001 7 171 0.0 0.0 0.00 1.78 1.70 74 1014.3
20260507033501 7 171 0.0 0.0 0.00 1.78 1.70 73 1014.3
20260507033010 7 171 0.0 1.6 0.00 1.80 1.70 73 1014.3
20260507032503 7 171 0.0 1.6 0.00 1.83 1.70 72 1014.3
20260507032002 7 171 0.0 0.0 0.00 1.83 1.70 72 1014.3
20260507031503 7 171 0.0 0.0 0.00 1.85 1.70 72 1014.2
20260507031003 7 171 0.0 0.0 0.00 1.85 1.70 73 1014.1
20260507030503 7 171 0.0 0.0 0.00 1.85 1.70 73 1014.1
20260507030003 7 171 0.0 0.0 0.00 1.88 1.70 73 1014.1
20260507025503 7 171 0.0 0.0 0.00 1.88 1.70 71 1014.1
20260507025002 8 171 0.0 0.0 0.00 1.91 1.70 72 1014.0
20260507024503 8 171 0.0 0.0 0.00 1.91 1.70 70 1014.1
20260507024006 8 171 0.0 0.0 0.00 1.98 1.70 71 1014.1
20260507023503 8 171 0.0 0.0 0.00 1.98 1.70 70 1014.0
20260507023006 8 171 0.0 0.0 0.00 2.01 1.70 69 1014.0
20260507022503 8 171 0.0 1.6 0.00 2.03 1.70 70 1014.1
20260507022003 8 171 0.0 3.2 0.00 2.08 1.70 69 1014.1
20260507021504 8 171 0.0 3.2 0.00 2.16 1.70 69 1014.1
20260507021002 8 171 0.0 6.4 0.00 2.26 1.70 68 1014.0
20260507020502 8 171 0.0 6.4 0.00 2.34 1.70 70 1014.0
20260507020006 8 171 0.0 6.4 0.00 2.36 1.70 70 1013.9
20260507015506 8 197 0.0 6.4 0.00 2.39 1.70 70 1013.8
20260507015005 8 165 3.2 6.4 0.00 2.39 1.70 69 1013.7
20260507014507 8 177 1.6 8.0 0.00 2.41 1.70 68 1013.7
20260507014003 8 167 1.6 8.0 0.00 2.41 1.70 69 1013.6
20260507013502 8 194 1.6 9.7 0.00 2.44 1.70 70 1013.5
20260507013003 8 213 1.6 9.7 0.00 2.44 1.70 69 1013.5
20260507012503 8 186 1.6 6.4 0.00 2.44 1.70 71 1013.4
20260507012003 8 196 1.6 8.0 0.00 2.46 1.70 69 1013.3
20260507011505 8 192 3.2 8.0 0.00 2.46 1.70 68 1013.2
20260507011002 8 190 1.6 9.7 0.00 2.46 1.70 69 1013.2
20260507010503 8 198 1.6 9.7 0.00 2.46 1.70 69 1013.1
20260507010013 8 196 1.6 11.3 0.00 2.46 1.70 69 1013.2
20260507005503 8 173 1.6 11.3 0.00 2.49 1.70 66 1013.2
20260507005003 9 186 4.8 11.3 0.00 2.49 1.70 66 1013.2
20260507004508 9 198 4.8 11.3 0.00 2.49 1.70 67 1013.2
20260507004007 9 193 3.2 11.3 0.00 2.49 1.70 67 1013.1
20260507003503 9 180 3.2 11.3 0.00 2.49 1.70 66 1013.1
20260507003006 9 196 4.8 11.3 0.00 2.51 1.70 66 1013.0
20260507002503 10 191 4.8 11.3 0.00 2.51 1.70 68 1012.9
20260507002010 10 196 3.2 9.7 0.00 2.51 1.70 67 1012.9
20260507001502 10 206 6.4 12.9 0.00 2.54 1.70 67 1012.9
20260507001003 10 161 4.8 12.9 0.00 2.54 1.70 66 1012.9
20260507000503 10 204 6.4 12.9 0.00 2.54 1.70 65 1012.9
20260507000007 10 159 0.0 1.6 0.00 2.54 1.70 64 1012.8
20260506235505 10 159 0.0 0.0 0.00 2.57 1.70 65 1012.8
20260506235003 10 159 0.0 0.0 0.00 2.59 1.70 65 1012.9
20260506234509 10 159 0.0 0.0 0.00 2.59 1.70 65 1012.9
20260506234001 10 159 0.0 0.0 0.00 2.64 1.70 65 1012.9
20260506233502 10 159 0.0 3.2 0.00 2.67 1.70 63 1013.0
20260506233012 10 159 0.0 3.2 0.00 2.72 1.70 64 1012.9
20260506232506 10 159 0.0 3.2 0.00 2.79 1.70 62 1012.8
20260506232002 10 159 0.0 6.4 0.00 2.92 1.70 63 1012.9
20260506231509 11 159 0.0 6.4 0.00 3.05 1.70 61 1012.8
20260506231007 11 159 0.0 6.4 0.00 3.07 1.70 63 1012.8
20260506230507 11 160 0.0 4.8 0.00 3.07 1.70 63 1012.8
20260506230007 11 157 0.0 4.8 0.00 3.07 1.70 61 1012.8
20260506225507 11 157 0.0 9.7 0.00 3.10 1.70 61 1012.8
20260506225002 11 174 3.2 9.7 0.00 3.10 1.70 59 1012.9
20260506224507 11 155 0.0 4.8 0.00 3.10 1.70 62 1012.8
20260506224004 11 168 0.0 9.7 0.00 3.10 1.70 62 1012.8
20260506223501 11 142 1.6 9.7 0.00 3.10 1.70 59 1012.6
20260506223010 11 167 0.0 9.7 0.00 3.10 1.70 59 1012.5
20260506222506 11 182 0.0 11.3 0.00 3.10 1.70 58 1012.4
20260506222008 11 173 3.2 11.3 0.00 3.10 1.70 56 1012.4
20260506221517 12 149 1.6 8.0 0.00 3.10 1.70 59 1012.3
20260506221006 12 170 1.6 12.9 0.00 3.10 1.70 56 1012.3
20260506220502 12 168 1.6 12.9 0.00 3.10 1.70 57 1012.3
20260506220030 12 155 3.2 11.3 0.00 3.10 1.70 57 1012.2
20260506215507 11 131 1.6 9.7 0.00 3.10 1.70 57 1012.2
20260506215002 12 128 0.0 8.0 0.00 3.10 1.70 59 1012.2
20260506214512 12 120 1.6 9.7 0.00 3.10 1.70 57 1012.2
20260506214006 12 158 3.2 11.3 0.00 3.10 1.70 55 1012.2
20260506213506 12 81 1.6 14.5 0.00 3.10 1.70 56 1012.0
20260506213006 12 113 3.2 14.5 0.00 3.10 1.70 59 1012.0
20260506212503 12 154 3.2 14.5 0.00 3.10 1.70 57 1011.9
20260506212003 12 126 4.8 14.5 0.00 3.10 1.70 58 1011.9
20260506211510 12 170 3.2 9.7 0.00 3.10 1.70 57 1011.9
20260506211003 12 178 0.0 9.7 0.00 3.10 1.70 58 1011.9
20260506210506 12 184 1.6 9.7 0.00 3.10 1.70 60 1011.8
20260506210016 11 153 1.6 12.9 0.00 3.10 1.70 57 1011.8
20260506205504 11 180 3.2 12.9 0.00 3.10 1.70 59 1011.8
20260506205008 11 163 3.2 12.9 0.00 3.10 1.70 56 1011.8
20260506204522 11 153 1.6 11.3 0.00 3.10 1.70 59 1011.8
20260506204005 11 163 3.2 12.9 0.00 3.10 1.70 57 1011.8
20260506203502 11 169 1.6 12.9 0.00 3.10 1.70 56 1011.8
20260506203021 11 179 3.2 16.1 0.00 3.10 1.70 57 1011.8
20260506202506 12 194 3.2 16.1 0.00 3.10 1.70 57 1011.8
20260506202019 12 149 3.2 14.5 0.00 3.10 1.70 56 1011.8
20260506201515 12 182 0.0 11.3 0.00 3.12 1.70 58 1011.9
20260506201004 12 138 1.6 16.1 0.00 3.12 1.70 57 1011.9
20260506200503 12 167 4.8 16.1 0.00 3.15 1.70 54 1012.0
20260506200019 12 140 4.8 14.5 0.00 3.15 1.70 53 1011.9